Regional Weather Roundup
Issued by NWS Sterling, VA

Home | Current Version | Previous Version | Text Only | Print | Product List | Glossary On
Versions: 1 2 3 4 5 6 7 8 9 10 11 12 13 14 15 16 17 18 19 20 21 22 23 24 25 26 27 28 29 30 31 32 33 34 35 36 37 38 39 40 41 42 43 44 45 46 47 48 49 50
000
ASUS41 KLWX 021110
RWRLWX

REGIONAL WEATHER ROUNDUP
NATIONAL WEATHER SERVICE BALTIMORE MD/WASHINGTON DC
600 AM EST MON MAR 02 2015

Note: "FAIR" indicates few or no clouds below 12,000 feet
with no significant weather and/or obstructions to visibility.
 TC=TEMPERATURE CELSIUS

 * =Non NWS site. Station does not report precipitation (e.g. rain,
    snow, etc.), thunder, or fog.

DCZ001-MDZ009-015-VAZ040>042-051-053>054-021200-
WASHINGTON METRO

CITY           SKY/WX    TMP DP  RH WIND       PRES   REMARKS
WASHINGTON NAT CLOUDY    34  31  88 W3        30.13R FOG
DULLES         FOG       31  30  96 CALM      30.10S VSB 1/4
ANDREWS AFB    FOG       32  32 100 CALM      30.10S VSB 1
FT BELVOIR     CLOUDY    32  32 100 CALM      30.12S FOG
QUANTICO       FOG       33  30  88 NE6       30.14R VSB 1/4
COLLEGE PARK*  CLOUDY    32  32 100 CALM      30.12R
LEESBURG*      CLOUDY    32  32 100 SW3       30.12R FOG
MANASSAS*      CLOUDY    34  34 100 CALM      30.12R
GAITHERSBURG*  CLOUDY    30  28  93 CALM      30.13S

$$

MDZ006>007-011-014-021200-
BALTIMORE METRO

CITY           SKY/WX    TMP DP  RH WIND       PRES   REMARKS
BWI AIRPORT    CLOUDY    32  31  96 CALM      30.10R FOG
MD SCIENCE CTR   N/A      1  32 100 MISG      30.11R
MARTIN STATE   CLOUDY    34  34 100 CALM      30.12R FOG
ANNAPOLIS      CLOUDY    32  31  96 MISG      30.11R FOG
FORT MEADE*    CLOUDY    32  32 100 CALM      30.13R

$$

MDZ012-015-019>023-021200-
MARYLAND EASTERN SHORE

CITY           SKY/WX    TMP DP  RH WIND       PRES   REMARKS
OCEAN CITY     FOG       32  32 100 CALM      30.10R VSB 3/4
SALISBURY      FOG       35  32  88 W6        30.12R VSB 1/2
BAY BRIDGE AP*   N/A     32  32 100 CALM      30.11R FOG
EASTON*        FOG       32  32 100 CALM      30.14R VSB 3/4

$$

MDZ017>025-021200-
SOUTHERN MARYLAND

CITY           SKY/WX    TMP DP  RH WIND       PRES   REMARKS
PATUXENT RIVER FOG       32  31  96 N3        30.11R VSB 1/4
ST INIGOES     FOG       33  30  88 CALM      30.10R VSB 1/4
LEONARDTOWN*   CLOUDY    32  32 100 CALM      30.13R VSB 1/2

$$

MDZ003>005-021200-
NORTH CENTRAL MARYLAND

CITY           SKY/WX    TMP DP  RH WIND       PRES   REMARKS
FREDERICK*     NOT AVBL
HAGERSTOWN APT CLOUDY    33  29  85 W8        30.11R FOG     WCI  26
WESTMINSTER*   CLOUDY    30  28  93 CALM      30.09R FOG

$$

MDZ501>502-021200-
WESTERN MARYLAND

CITY           SKY/WX    TMP DP  RH WIND       PRES   REMARKS
OAKLAND*       FOG       27 N/A N/A W12G20    30.11R VSB<1/4 WCI  16
CUMBERLAND*    MOCLDY    37  32  81 W14G23    30.19R WCI  29

$$

VAZ025>031-021200-
SHENANDOAH VALLEY

CITY           SKY/WX    TMP DP  RH WIND       PRES   REMARKS
WINCHESTER*    CLOUDY    32  28  86 S3        30.10R FOG
FRONT ROYAL*   CLOUDY    30  30 100 CALM      30.10R
LURAY*         PTSUNNY   39  37  93 W12G18    30.08R
NEW MARKET*    CLOUDY    33  32  95 CALM      30.09R
STAUNTON*      MOCLDY    42  37  83 SW6       30.10R
WAYNESBORO*    PTSUNNY   45  38  76 SW10G16   30.09R

$$

WVZ021-048>050-054>055-021200-
EASTERN WEST VIRGINIA PANHANDLE

CITY           SKY/WX    TMP DP  RH WIND       PRES   REMARKS
MARTINSBURG    CLOUDY    42  31  64 W14G20    30.11R
PETERSBURG*    NOT AVBL

$$

VAZ036>039-050-021200-
CENTRAL FOOTHILLS

CITY           SKY/WX    TMP DP  RH WIND       PRES   REMARKS
CHARLOTTESVILL PTCLDY    31  30  96 S7        30.07S FOG
CULPEPER*      FOG       34  34 100 NE3       30.12R VSB 1/4
ORANGE*        CLOUDY    34  34 100 CALM      30.10R FOG
GORDONSVILLE*  CLOUDY    32  32  99 SW6       30.08S FOG
WARRENTON*     FOG       33  33 100 N5        30.11R VSB 1/4

$$

VAZ055>057-021200-
NORTH AND CENTRAL PIEDMONT

CITY           SKY/WX    TMP DP  RH WIND       PRES   REMARKS
FREDERICKSBRG* CLOUDY    34  34 100 NW3       30.10S FOG
STAFFORD*      CLOUDY    32  32  99 N5        30.17R FOG

$$

NCZ024-NYZ072-PAZ021-071-VAZ022-071-021200-
OTHER REGIONAL OBSERVATIONS

CITY           SKY/WX    TMP DP  RH WIND       PRES   REMARKS
NEW YORK CITY  CLOUDY    31  24  75 VRB3      30.04S
PHILADELPHIA   CLOUDY    32  30  92 W8        30.10R FOG     WCI  25
PITTSBURGH     LGT SNOW  24  19  81 NW18      30.27R FOG     WCI  10
ROANOKE        MOCLDY    47  41  80 W10       30.15R
RICHMOND       FOG       34  32  92 SW8       30.12S VSB 1/2 WCI  27
RALEIGH        LGT RAIN  37  35  92 W5        30.20R VSB 1/8

$$

ANZ530>537-021200-
MARINE OBSERVATIONS

STATION/POSITION TIME  TEMP    WIND        PRES
                       AIR SEA DIR/SP/G
                 (UTC) (F)     (DEG/KT/KT) (MB)
THOMAS PT LIGHT  1100   32 31     CALM     1020.5R
BALT KEY BRIDGE  1000   32                 1019.0R
COVE POINT       1000   32                 1019.3R
LEWISETTA        1000   33 33              1019.1R
SOLOMONS ISLAND  1000      32                N/A

$$




USA.gov is the U.S. government's official web portal to all federal, state and local government web resources and services.